Du Bois, PA

11:41 PM EDT on May 25, 2017 (GMT -0400)
Du Bois-Jefferson County

Weather History for KDUJ - March, 2015

Change the Weather History Date:

Wednesday, March 25, 2015

  Actual Average Record
Temperature  
Mean Temperature 39 °F 38 °F  
Max Temperature 46 °F 48 °F 71 °F (2003)
Min Temperature 31 °F 28 °F 6 °F (1974)
Degree Days  
Heating Degree Days 26 27  
Month to date heating degree days 831 781  
Since 1 July heating degree days 6169 5804  
Cooling Degree Days 0 0  
Month to date cooling degree days 0 0  
Year to date cooling degree days 0 0  
Moisture  
Dew Point 30 °F    
Average Humidity 73    
Maximum Humidity 89    
Minimum Humidity 56    
Precipitation  
Precipitation 0.27 in 0.11 in 0.50 in (1987)
Month to date precipitation 2.09 2.64  
Sea Level Pressure  
Sea Level Pressure 30.10 in    
Wind  
Wind Speed 10 mph (ESE)    
Max Wind Speed 18 mph    
Max Gust Speed 26 mph    
Visibility 6 miles    
Events Rain    
T = Trace of Precipitation, MM = Missing Value Source: NWS Daily Summary

Daily Weather History Graph

Daily Weather History Graph

Search for Another Location

Airport or City:

Trip Planner

Search our weather history database for the weather conditions in past years. The results will help you decide how hot, cold, wet, or windy it might be!

Date:

Astronomy

Mar. 25, 2015 Rise Set
Actual Time 7:10 AM EDT 7:32 PM EDT
Civil Twilight 6:43 AM EDT 8:00 PM EDT
Nautical Twilight 6:11 AM EDT 8:32 PM EDT
Astronomical Twilight 5:37 AM EDT 9:06 PM EDT
Moon 10:53 AM EDT (3/25) 12:39 AM EDT (3/25)
Length of Visible Light 13h 17m
Length of Day
12h 21m
Waxing Crescent, 33% of the Moon is Illuminated
Mar 25
Waxing Crescent
Mar 27
First Quarter
Apr 4
Full
Apr 11
Last Quarter
Apr 18
New

Hourly Weather History & Observations

Time (EDT) Temp. Windchill Dew Point Humidity Pressure Visibility Wind Dir Wind Speed Gust Speed Precip Events Conditions
12:53 AM 30.9 °F 24.3 °F 21.0 °F 67% 30.28 in 10.0 mi ESE 6.9 mph - N/A   Clear
1:53 AM 33.1 °F 24.9 °F 21.9 °F 64% 30.27 in 10.0 mi ESE 10.4 mph - N/A   Clear
2:53 AM 32.0 °F 24.2 °F 21.0 °F 64% 30.26 in 10.0 mi ESE 9.2 mph - N/A   Clear
3:53 AM 33.1 °F 24.9 °F 21.0 °F 61% 30.23 in 10.0 mi ESE 10.4 mph - N/A   Clear
4:53 AM 32.0 °F 23.6 °F 21.0 °F 64% 30.19 in 10.0 mi ESE 10.4 mph - N/A   Clear
5:53 AM 33.1 °F 23.9 °F 21.0 °F 61% 30.19 in 10.0 mi SE 12.7 mph - N/A   Clear
6:53 AM 33.1 °F 23.4 °F 21.0 °F 61% 30.19 in 10.0 mi SE 13.8 mph 23.0 mph N/A   Clear
7:53 AM 33.1 °F 22.6 °F 21.0 °F 61% 30.17 in 10.0 mi SE 16.1 mph 24.2 mph N/A   Clear
8:53 AM 35.1 °F 26.4 °F 21.0 °F 57% 30.18 in 10.0 mi SE 12.7 mph - N/A   Overcast
9:39 AM 34.0 °F 25.5 °F 25.0 °F 70% 30.13 in 5.0 mi ESE 11.5 mph - 0.00 in   Overcast
9:53 AM 34.0 °F 25.5 °F 26.1 °F 73% 30.17 in 4.0 mi SE 11.5 mph - 0.02 in   Overcast
10:11 AM 34.0 °F 24.6 °F 27.0 °F 75% 30.12 in 4.0 mi SE 13.8 mph - 0.01 in Rain Light Freezing Rain
10:26 AM 34.0 °F 23.8 °F 28.0 °F 79% 30.10 in 6.0 mi SE 16.1 mph 23.0 mph 0.01 in   Overcast
10:35 AM 34.0 °F 23.4 °F 28.0 °F 79% 30.09 in 5.0 mi ESE 17.3 mph - 0.02 in Rain Light Freezing Rain
10:45 AM 35.1 °F 25.5 °F 28.9 °F 78% 30.09 in 6.0 mi ESE 15.0 mph 25.3 mph 0.02 in   Overcast
10:53 AM 35.1 °F 25.9 °F 28.9 °F 78% 30.14 in 5.0 mi ESE 13.8 mph 23.0 mph 0.02 in   Haze
11:41 AM 35.1 °F 26.4 °F 30.0 °F 82% 30.08 in 2.5 mi SE 12.7 mph 20.7 mph 0.00 in   Overcast
11:53 AM 35.1 °F 24.8 °F 30.0 °F 82% 30.12 in 2.5 mi ESE 17.3 mph 23.0 mph 0.01 in   Overcast
12:15 PM 35.1 °F 25.9 °F 30.9 °F 85% 30.05 in 1.2 mi ESE 13.8 mph 18.4 mph 0.09 in Rain Light Rain
12:40 PM 35.1 °F 26.4 °F 32.0 °F 89% 30.05 in 1.5 mi SE 12.7 mph - 0.13 in Rain Light Rain
12:53 PM 35.1 °F 25.9 °F 32.0 °F 89% 30.09 in 1.5 mi ESE 13.8 mph - 0.15 in Rain Light Rain
1:38 PM 36.0 °F 27.5 °F 32.0 °F 86% 30.02 in 2.0 mi SE 12.7 mph 21.9 mph 0.06 in   Overcast
1:53 PM 36.0 °F 27.5 °F 33.1 °F 89% 30.07 in 1.8 mi ESE 12.7 mph - 0.07 in Rain Light Rain
1:56 PM 36.0 °F 28.5 °F 33.1 °F 89% 30.02 in 2.0 mi ESE 10.4 mph 18.4 mph 0.00 in   Overcast
2:20 PM 37.0 °F 28.5 °F 34.0 °F 89% 30.00 in 3.0 mi SE 13.8 mph - 0.00 in   Overcast
2:28 PM 37.0 °F 28.5 °F 34.0 °F 89% 30.00 in 3.0 mi SE 13.8 mph 18.4 mph 0.00 in   Overcast
2:43 PM 37.0 °F 30.4 °F 34.0 °F 89% 30.00 in 2.0 mi ESE 9.2 mph - 0.00 in Rain Light Rain
2:53 PM 37.9 °F 30.9 °F 34.0 °F 86% 30.04 in 2.5 mi SE 10.4 mph - 0.00 in   Overcast
3:08 PM 39.0 °F 32.3 °F 35.1 °F 86% 30.00 in 3.0 mi SE 10.4 mph - N/A   Overcast
3:53 PM 39.9 °F 31.8 °F 36.0 °F 86% 30.02 in 3.0 mi SE 15.0 mph - N/A   Overcast
4:53 PM 42.1 °F 37.7 °F 37.9 °F 85% 30.02 in 4.0 mi SE 6.9 mph - N/A   Overcast
5:53 PM 45.0 °F 40.6 °F 39.0 °F 80% 30.01 in 6.0 mi SE 8.1 mph - N/A   Haze
6:53 PM 45.0 °F 41.8 °F 39.0 °F 80% 30.03 in 7.0 mi East 5.8 mph - N/A   Mostly Cloudy
7:53 PM 42.1 °F 38.4 °F 37.0 °F 82% 30.04 in 8.0 mi ESE 5.8 mph - N/A   Clear
8:53 PM 42.1 °F 39.2 °F 36.0 °F 79% 30.06 in 8.0 mi East 4.6 mph - N/A   Clear
9:53 PM 42.1 °F 37.7 °F 36.0 °F 79% 30.06 in 10.0 mi ESE 6.9 mph - N/A   Clear
10:53 PM 39.9 °F 36.7 °F 36.0 °F 86% 30.04 in 6.0 mi ESE 4.6 mph - N/A   Partly Cloudy
11:53 PM 41.0 °F 36.4 °F 35.1 °F 79% 30.02 in 8.0 mi SE 6.9 mph - N/A   Clear